| time (UTC) | temp F | wind direction | speed MPH | gust MPH | rain 1hr in | rain 24hr in | rain mn in | humidity % | barometer mb |
| 20260507092021 | 41 | 242 | 0.0 | 0.0 | 0.00 | 0.17 | 0.00 | 81 | 1012.9 |
| 20260507091519 | 41 | 242 | 0.0 | 0.0 | 0.00 | 0.17 | 0.00 | 81 | 1013.0 |
| 20260507091014 | 41 | 242 | 0.0 | 0.0 | 0.00 | 0.17 | 0.00 | 81 | 1013.0 |
| 20260507090514 | 41 | 242 | 0.0 | 0.0 | 0.00 | 0.17 | 0.00 | 81 | 1013.0 |
| 20260507090012 | 42 | 242 | 0.0 | 0.0 | 0.00 | 0.17 | 0.00 | 81 | 1013.0 |
| 20260507085512 | 42 | 242 | 0.0 | 0.0 | 0.00 | 0.17 | 0.00 | 81 | 1013.0 |
| 20260507085011 | 42 | 242 | 0.0 | 0.0 | 0.00 | 0.17 | 0.00 | 81 | 1012.9 |
| 20260507084509 | 42 | 242 | 0.0 | 0.0 | 0.00 | 0.17 | 0.00 | 81 | 1013.0 |
| 20260507084013 | 43 | 242 | 0.0 | 0.0 | 0.00 | 0.17 | 0.00 | 81 | 1012.9 |
| 20260507083508 | 43 | 242 | 0.0 | 0.0 | 0.00 | 0.17 | 0.00 | 81 | 1013.0 |
| 20260507083008 | 43 | 242 | 0.0 | 0.0 | 0.00 | 0.17 | 0.00 | 81 | 1013.0 |
| 20260507082507 | 43 | 242 | 0.0 | 0.0 | 0.00 | 0.17 | 0.00 | 81 | 1013.0 |
| 20260507082006 | 43 | 242 | 0.0 | 0.0 | 0.00 | 0.17 | 0.00 | 81 | 1012.9 |
| 20260507081506 | 43 | 242 | 0.0 | 0.0 | 0.00 | 0.17 | 0.00 | 81 | 1013.0 |
| 20260507081006 | 44 | 242 | 0.0 | 0.0 | 0.00 | 0.17 | 0.00 | 82 | 1013.0 |
| 20260507080508 | 44 | 242 | 0.0 | 0.0 | 0.00 | 0.17 | 0.00 | 81 | 1013.0 |
| 20260507080005 | 44 | 250 | 0.0 | 0.0 | 0.00 | 0.17 | 0.00 | 81 | 1013.0 |
| 20260507075505 | 44 | 250 | 0.0 | 0.0 | 0.00 | 0.17 | 0.00 | 81 | 1012.9 |
| 20260507075005 | 44 | 250 | 0.0 | 0.0 | 0.00 | 0.17 | 0.00 | 82 | 1013.0 |
| 20260507074504 | 44 | 250 | 0.0 | 0.0 | 0.00 | 0.17 | 0.00 | 82 | 1012.9 |
| 20260507074006 | 44 | 250 | 0.0 | 1.0 | 0.00 | 0.17 | 0.00 | 82 | 1012.9 |
| 20260507073503 | 44 | 250 | 0.0 | 2.0 | 0.00 | 0.17 | 0.00 | 82 | 1012.9 |
| 20260507073006 | 44 | 250 | 0.0 | 3.0 | 0.00 | 0.17 | 0.00 | 82 | 1012.8 |
| 20260507072503 | 44 | 250 | 0.0 | 4.0 | 0.00 | 0.17 | 0.00 | 82 | 1012.8 |
| 20260507072002 | 44 | 246 | 0.0 | 5.0 | 0.00 | 0.17 | 0.00 | 82 | 1012.9 |
| 20260507071502 | 44 | 268 | 2.0 | 6.0 | 0.00 | 0.17 | 0.00 | 82 | 1013.0 |
| 20260507071003 | 44 | 297 | 0.0 | 7.0 | 0.00 | 0.17 | 0.00 | 83 | 1013.0 |
| 20260507070502 | 44 | 277 | 3.0 | 7.0 | 0.00 | 0.17 | 0.00 | 83 | 1013.1 |
| 20260507070000 | 44 | 251 | 0.0 | 3.0 | 0.00 | 0.17 | 0.00 | 83 | 1013.1 |
| 20260507065603 | 44 | 320 | 0.0 | 5.0 | 0.00 | 0.17 | 0.00 | 83 | 1013.0 |
| 20260507065059 | 44 | 321 | 2.0 | 7.0 | 0.00 | 0.17 | 0.00 | 83 | 1012.9 |
| 20260507064638 | 44 | 218 | 1.0 | 9.0 | 0.00 | 0.17 | 0.00 | 84 | 1012.9 |
| 20260507064103 | 44 | 234 | 3.0 | 9.0 | 0.00 | 0.17 | 0.00 | 84 | 1012.8 |
| 20260507063558 | 45 | 257 | 0.0 | 5.0 | 0.00 | 0.17 | 0.00 | 85 | 1012.8 |
| 20260507063115 | 45 | 281 | 3.0 | 5.0 | 0.00 | 0.17 | 0.00 | 85 | 1012.8 |
| 20260507062555 | 45 | 355 | 1.0 | 5.0 | 0.00 | 0.17 | 0.00 | 86 | 1012.7 |
| 20260507062055 | 45 | 270 | 0.0 | 7.0 | 0.00 | 0.17 | 0.00 | 86 | 1012.6 |
| 20260507061555 | 45 | 240 | 3.0 | 9.0 | 0.00 | 0.17 | 0.00 | 87 | 1012.6 |
| 20260507061053 | 45 | 246 | 4.0 | 16.0 | 0.00 | 0.17 | 0.00 | 87 | 1012.6 |
| 20260507060552 | 45 | 267 | 5.0 | 11.0 | 0.00 | 0.17 | 0.00 | 88 | 1012.5 |
| 20260507060111 | 46 | 297 | 2.0 | 7.0 | 0.00 | 0.17 | 0.00 | 88 | 1012.4 |
| 20260507055552 | 46 | 30 | 2.0 | 10.0 | 0.00 | 0.17 | 0.00 | 89 | 1012.4 |
| 20260507055051 | 46 | 278 | 4.0 | 10.0 | 0.00 | 0.17 | 0.00 | 89 | 1012.3 |
| 20260507054557 | 46 | 267 | 0.0 | 11.0 | 0.00 | 0.17 | 0.00 | 89 | 1012.3 |
| 20260507054050 | 46 | 346 | 5.0 | 13.0 | 0.00 | 0.17 | 0.00 | 89 | 1012.3 |
| 20260507053549 | 46 | 294 | 5.0 | 13.0 | 0.00 | 0.17 | 0.00 | 89 | 1012.2 |
| 20260507053047 | 46 | 201 | 3.0 | 7.0 | 0.00 | 0.17 | 0.00 | 89 | 1012.1 |
| 20260507052547 | 46 | 290 | 0.0 | 7.0 | 0.00 | 0.17 | 0.00 | 89 | 1012.1 |
| 20260507052046 | 46 | 236 | 0.0 | 0.0 | 0.00 | 0.17 | 0.00 | 89 | 1012.3 |
| 20260507051601 | 46 | 237 | 0.0 | 0.0 | 0.00 | 0.17 | 0.00 | 89 | 1012.2 |
| 20260507051045 | 46 | 237 | 0.0 | 0.0 | 0.00 | 0.17 | 0.00 | 89 | 1012.1 |
| 20260507050545 | 46 | 229 | 0.0 | 3.0 | 0.00 | 0.17 | 0.00 | 89 | 1012.1 |
| 20260507050049 | 46 | 229 | 0.0 | 4.0 | 0.00 | 0.17 | 0.00 | 89 | 1012.1 |
| 20260507045545 | 46 | 231 | 0.0 | 4.0 | 0.00 | 0.17 | 0.00 | 89 | 1012.0 |
| 20260507045045 | 46 | 240 | 1.0 | 5.0 | 0.00 | 0.17 | 0.00 | 89 | 1012.0 |
| 20260507044644 | 46 | 214 | 0.0 | 5.0 | 0.00 | 0.17 | 0.00 | 89 | 1012.1 |
| 20260507044046 | 46 | 128 | 1.0 | 5.0 | 0.00 | 0.17 | 0.00 | 89 | 1012.2 |
| 20260507043543 | 46 | 243 | 1.0 | 4.0 | 0.00 | 0.17 | 0.00 | 89 | 1012.1 |
| 20260507043043 | 46 | 223 | 1.0 | 4.0 | 0.00 | 0.17 | 0.00 | 88 | 1012.1 |
| 20260507042541 | 46 | 211 | 0.0 | 0.0 | 0.00 | 0.17 | 0.00 | 88 | 1012.1 |
| 20260507042040 | 46 | 215 | 0.0 | 0.0 | 0.00 | 0.17 | 0.00 | 88 | 1012.1 |
| 20260507041539 | 46 | 215 | 0.0 | 0.0 | 0.00 | 0.17 | 0.00 | 88 | 1011.8 |
| 20260507041039 | 46 | 215 | 0.0 | 0.0 | 0.00 | 0.17 | 0.00 | 88 | 1011.9 |
| 20260507040539 | 46 | 215 | 0.0 | 0.0 | 0.00 | 0.17 | 0.00 | 88 | 1011.9 |
| 20260507040038 | 46 | 215 | 0.0 | 0.0 | 0.00 | 0.17 | 0.00 | 88 | 1011.8 |
| 20260507035537 | 46 | 215 | 0.0 | 0.0 | 0.00 | 0.17 | 0.17 | 88 | 1011.9 |
| 20260507035038 | 46 | 215 | 0.0 | 0.0 | 0.00 | 0.17 | 0.17 | 88 | 1012.1 |
| 20260507034538 | 46 | 215 | 0.0 | 0.0 | 0.00 | 0.17 | 0.17 | 88 | 1011.9 |
| 20260507034037 | 46 | 215 | 0.0 | 0.0 | 0.00 | 0.17 | 0.17 | 88 | 1011.7 |
| 20260507033537 | 46 | 215 | 0.0 | 0.0 | 0.00 | 0.17 | 0.17 | 88 | 1011.9 |
| 20260507033036 | 46 | 215 | 0.0 | 0.0 | 0.00 | 0.17 | 0.17 | 88 | 1011.6 |
| 20260507032536 | 46 | 215 | 0.0 | 0.0 | 0.00 | 0.17 | 0.17 | 88 | 1011.4 |
| 20260507032039 | 46 | 215 | 0.0 | 0.0 | 0.00 | 0.17 | 0.17 | 88 | 1011.7 |
| 20260507031536 | 46 | 215 | 0.0 | 0.0 | 0.00 | 0.17 | 0.17 | 88 | 1011.9 |
| 20260507031036 | 46 | 215 | 0.0 | 0.0 | 0.00 | 0.17 | 0.17 | 88 | 1011.8 |
| 20260507030535 | 46 | 215 | 0.0 | 0.0 | 0.00 | 0.17 | 0.17 | 88 | 1012.0 |
| 20260507030037 | 46 | 215 | 0.0 | 0.0 | 0.00 | 0.17 | 0.17 | 88 | 1011.8 |
| 20260507025537 | 46 | 215 | 0.0 | 0.0 | 0.00 | 0.17 | 0.17 | 88 | 1011.7 |
| 20260507025039 | 46 | 215 | 0.0 | 0.0 | 0.00 | 0.17 | 0.17 | 88 | 1012.2 |
| 20260507024535 | 46 | 215 | 0.0 | 0.0 | 0.00 | 0.17 | 0.17 | 88 | 1012.3 |
| 20260507024033 | 46 | 215 | 0.0 | 0.0 | 0.00 | 0.17 | 0.17 | 88 | 1012.3 |
| 20260507023533 | 46 | 215 | 0.0 | 0.0 | 0.00 | 0.17 | 0.17 | 88 | 1012.1 |
| 20260507023033 | 46 | 215 | 0.0 | 0.0 | 0.00 | 0.17 | 0.17 | 88 | 1012.1 |
| 20260507022533 | 46 | 215 | 0.0 | 0.0 | 0.00 | 0.17 | 0.17 | 88 | 1011.9 |
| 20260507022033 | 46 | 215 | 0.0 | 0.0 | 0.00 | 0.17 | 0.17 | 88 | 1011.8 |
| 20260507021536 | 46 | 215 | 0.0 | 0.0 | 0.00 | 0.17 | 0.17 | 88 | 1012.5 |
| 20260507021032 | 46 | 215 | 0.0 | 0.0 | 0.00 | 0.17 | 0.17 | 88 | 1012.5 |
| 20260507020531 | 46 | 215 | 0.0 | 0.0 | 0.00 | 0.17 | 0.17 | 88 | 1012.2 |
| 20260507020035 | 46 | 215 | 0.0 | 0.0 | 0.00 | 0.17 | 0.17 | 88 | 1012.5 |
| 20260507015531 | 46 | 215 | 0.0 | 0.0 | 0.00 | 0.17 | 0.17 | 88 | 1012.2 |
| 20260507015034 | 46 | 215 | 0.0 | 0.0 | 0.00 | 0.17 | 0.17 | 88 | 1012.4 |
| 20260507014531 | 46 | 215 | 0.0 | 0.0 | 0.00 | 0.17 | 0.17 | 88 | 1012.5 |
| 20260507014031 | 46 | 215 | 0.0 | 0.0 | 0.00 | 0.17 | 0.17 | 88 | 1012.3 |
| 20260507013529 | 46 | 215 | 0.0 | 0.0 | 0.00 | 0.17 | 0.17 | 88 | 1012.2 |
| 20260507013029 | 46 | 215 | 0.0 | 0.0 | 0.00 | 0.17 | 0.17 | 88 | 1012.2 |
| 20260507012532 | 46 | 215 | 0.0 | 0.0 | 0.00 | 0.17 | 0.17 | 88 | 1012.2 |
| 20260507012029 | 46 | 215 | 0.0 | 0.0 | 0.00 | 0.17 | 0.17 | 88 | 1012.4 |
| 20260507011533 | 47 | 215 | 0.0 | 0.0 | 0.00 | 0.17 | 0.17 | 88 | 1012.2 |
| 20260507011027 | 47 | 215 | 0.0 | 0.0 | 0.00 | 0.17 | 0.17 | 88 | 1012.2 |
| 20260507010527 | 47 | 215 | 0.0 | 0.0 | 0.00 | 0.17 | 0.17 | 87 | 1012.2 |
| 20260507010034 | 47 | 215 | 0.0 | 0.0 | 0.00 | 0.17 | 0.17 | 87 | 1012.1 |
| 20260507005528 | 47 | 215 | 0.0 | 0.0 | 0.00 | 0.17 | 0.17 | 87 | 1012.0 |
| 20260507005025 | 47 | 215 | 0.0 | 0.0 | 0.00 | 0.17 | 0.17 | 87 | 1012.0 |
| 20260507004526 | 47 | 215 | 0.0 | 0.0 | 0.00 | 0.17 | 0.17 | 87 | 1011.9 |
| 20260507004025 | 47 | 215 | 0.0 | 0.0 | 0.00 | 0.17 | 0.17 | 87 | 1012.0 |
| 20260507003524 | 47 | 215 | 0.0 | 0.0 | 0.00 | 0.17 | 0.17 | 87 | 1011.8 |
| 20260507003023 | 47 | 218 | 0.0 | 0.0 | 0.00 | 0.17 | 0.17 | 87 | 1011.7 |
| 20260507002522 | 47 | 218 | 0.0 | 0.0 | 0.00 | 0.17 | 0.17 | 88 | 1011.7 |
| 20260507002026 | 47 | 209 | 0.0 | 0.0 | 0.00 | 0.17 | 0.17 | 88 | 1011.7 |
| 20260507001522 | 47 | 208 | 0.0 | 0.0 | 0.00 | 0.17 | 0.17 | 88 | 1011.7 |
| 20260507001021 | 47 | 208 | 0.0 | 0.0 | 0.00 | 0.17 | 0.17 | 88 | 1011.4 |
| 20260507000521 | 47 | 227 | 0.0 | 0.0 | 0.00 | 0.17 | 0.17 | 87 | 1011.4 |
| 20260507000022 | 47 | 227 | 0.0 | 0.0 | 0.00 | 0.17 | 0.17 | 88 | 1011.4 |
| 20260506235521 | 47 | 231 | 0.0 | 0.0 | 0.00 | 0.17 | 0.17 | 87 | 1011.5 |
| 20260506235019 | 47 | 230 | 0.0 | 0.0 | 0.00 | 0.17 | 0.17 | 87 | 1011.4 |
| 20260506234520 | 47 | 232 | 0.0 | 0.0 | 0.00 | 0.17 | 0.17 | 87 | 1011.3 |
| 20260506234017 | 47 | 232 | 0.0 | 0.0 | 0.00 | 0.17 | 0.17 | 87 | 1011.3 |
| 20260506233517 | 47 | 232 | 0.0 | 0.0 | 0.00 | 0.17 | 0.17 | 87 | 1011.2 |
| 20260506233017 | 47 | 221 | 0.0 | 0.0 | 0.00 | 0.17 | 0.17 | 87 | 1011.2 |
| 20260506232516 | 47 | 223 | 0.0 | 0.0 | 0.00 | 0.17 | 0.17 | 87 | 1011.1 |
| 20260506232017 | 47 | 219 | 0.0 | 0.0 | 0.00 | 0.17 | 0.17 | 87 | 1011.0 |
| 20260506231516 | 48 | 219 | 0.0 | 0.0 | 0.00 | 0.17 | 0.17 | 88 | 1011.1 |
| 20260506231015 | 48 | 214 | 0.0 | 0.0 | 0.00 | 0.17 | 0.17 | 87 | 1011.2 |
| 20260506230513 | 48 | 234 | 0.0 | 0.0 | 0.00 | 0.17 | 0.17 | 87 | 1011.0 |
| 20260506230019 | 48 | 249 | 0.0 | 0.0 | 0.00 | 0.17 | 0.17 | 88 | 1011.0 |
| 20260506225515 | 48 | 238 | 0.0 | 0.0 | 0.00 | 0.17 | 0.17 | 88 | 1010.9 |
| 20260506225013 | 48 | 238 | 0.0 | 4.0 | 0.00 | 0.17 | 0.17 | 88 | 1010.9 |
| 20260506224512 | 48 | 271 | 1.0 | 4.0 | 0.00 | 0.17 | 0.17 | 88 | 1010.9 |
| 20260506224010 | 48 | 241 | 2.0 | 7.0 | 0.00 | 0.17 | 0.17 | 88 | 1010.8 |
| 20260506223510 | 48 | 253 | 0.0 | 7.0 | 0.00 | 0.17 | 0.17 | 88 | 1010.7 |
| 20260506223010 | 48 | 267 | 2.0 | 6.0 | 0.00 | 0.17 | 0.17 | 88 | 1010.7 |
| 20260506222509 | 48 | 270 | 3.0 | 9.0 | 0.00 | 0.17 | 0.17 | 88 | 1010.5 |
| 20260506222008 | 48 | 215 | 4.0 | 9.0 | 0.00 | 0.17 | 0.17 | 88 | 1010.4 |
| 20260506221508 | 48 | 277 | 1.0 | 8.0 | 0.00 | 0.17 | 0.17 | 88 | 1010.5 |
| 20260506221007 | 48 | 263 | 3.0 | 8.0 | 0.00 | 0.17 | 0.17 | 89 | 1010.5 |
| 20260506220507 | 48 | 288 | 2.0 | 7.0 | 0.00 | 0.17 | 0.17 | 89 | 1010.3 |
| 20260506220007 | 48 | 271 | 0.0 | 8.0 | 0.00 | 0.17 | 0.17 | 89 | 1010.3 |
| 20260506215510 | 48 | 279 | 2.0 | 8.0 | 0.00 | 0.17 | 0.17 | 89 | 1010.3 |
| 20260506215006 | 48 | 284 | 0.0 | 5.0 | 0.00 | 0.17 | 0.17 | 89 | 1010.3 |
| 20260506214505 | 48 | 286 | 0.0 | 8.0 | 0.00 | 0.17 | 0.17 | 89 | 1010.4 |
| 20260506214006 | 48 | 288 | 5.0 | 8.0 | 0.00 | 0.17 | 0.17 | 89 | 1010.4 |
| 20260506213503 | 48 | 252 | 1.0 | 10.0 | 0.00 | 0.17 | 0.17 | 89 | 1010.3 |
| 20260506213005 | 48 | 306 | 3.0 | 10.0 | 0.00 | 0.17 | 0.17 | 89 | 1010.3 |
| 20260506212502 | 49 | 212 | 3.0 | 8.0 | 0.00 | 0.17 | 0.17 | 89 | 1010.2 |
| 20260506212001 | 49 | 207 | 2.0 | 9.0 | 0.00 | 0.17 | 0.17 | 89 | 1009.9 |
| 20260506211501 | 49 | 275 | 3.0 | 10.0 | 0.00 | 0.17 | 0.17 | 89 | 1009.9 |
| 20260506211100 | 49 | 236 | 4.0 | 10.0 | 0.00 | 0.17 | 0.17 | 89 | 1009.9 |
| 20260506210600 | 49 | 252 | 2.0 | 6.0 | 0.00 | 0.17 | 0.17 | 89 | 1009.7 |
| 20260506210105 | 49 | 226 | 3.0 | 8.0 | 0.00 | 0.17 | 0.17 | 90 | 1009.5 |
| 20260506205557 | 49 | 295 | 0.0 | 5.0 | 0.00 | 0.17 | 0.17 | 90 | 1009.4 |
| 20260506205056 | 49 | 219 | 2.0 | 8.0 | 0.00 | 0.17 | 0.17 | 89 | 1009.4 |
| 20260506204606 | 49 | 261 | 2.0 | 8.0 | 0.00 | 0.17 | 0.17 | 89 | 1009.3 |
| 20260506204054 | 49 | 221 | 3.0 | 8.0 | 0.00 | 0.17 | 0.17 | 89 | 1009.2 |
| 20260506203554 | 49 | 309 | 3.0 | 10.0 | 0.00 | 0.17 | 0.17 | 89 | 1009.2 |
| 20260506203053 | 49 | 280 | 6.0 | 10.0 | 0.00 | 0.17 | 0.17 | 89 | 1009.1 |
| 20260506202552 | 49 | 241 | 4.0 | 8.0 | 0.00 | 0.17 | 0.17 | 89 | 1009.0 |
| 20260506202054 | 49 | 240 | 2.0 | 6.0 | 0.01 | 0.17 | 0.17 | 89 | 1008.8 |
| 20260506201551 | 49 | 258 | 3.0 | 6.0 | 0.01 | 0.17 | 0.17 | 89 | 1008.6 |
| 20260506201050 | 49 | 291 | 4.0 | 7.0 | 0.01 | 0.17 | 0.17 | 89 | 1008.4 |
| 20260506200550 | 49 | 267 | 1.0 | 4.0 | 0.01 | 0.17 | 0.17 | 89 | 1008.3 |
| 20260506200051 | 49 | 236 | 1.0 | 9.0 | 0.01 | 0.17 | 0.17 | 89 | 1008.3 |
| 20260506195556 | 49 | 271 | 4.0 | 9.0 | 0.01 | 0.19 | 0.17 | 89 | 1008.4 |
| 20260506195048 | 49 | 227 | 3.0 | 8.0 | 0.01 | 0.19 | 0.17 | 89 | 1008.4 |
| 20260506194549 | 49 | 223 | 3.0 | 10.0 | 0.01 | 0.19 | 0.17 | 89 | 1008.4 |
| 20260506194048 | 50 | 222 | 5.0 | 11.0 | 0.01 | 0.19 | 0.17 | 89 | 1008.5 |
| 20260506193546 | 50 | 207 | 6.0 | 11.0 | 0.01 | 0.19 | 0.17 | 89 | 1008.3 |
| 20260506193045 | 50 | 248 | 4.0 | 11.0 | 0.01 | 0.19 | 0.17 | 89 | 1008.4 |
| 20260506192545 | 50 | 249 | 4.0 | 7.0 | 0.01 | 0.19 | 0.17 | 89 | 1008.3 |
| 20260506192044 | 50 | 233 | 3.0 | 8.0 | 0.00 | 0.18 | 0.16 | 89 | 1008.1 |
| 20260506191549 | 50 | 217 | 3.0 | 8.0 | 0.00 | 0.18 | 0.16 | 89 | 1008.1 |
| 20260506191045 | 50 | 243 | 2.0 | 6.0 | 0.00 | 0.18 | 0.16 | 89 | 1008.0 |
| 20260506190542 | 50 | 217 | 3.0 | 6.0 | 0.00 | 0.18 | 0.16 | 88 | 1007.9 |
| 20260506190042 | 50 | 238 | 2.0 | 5.0 | 0.00 | 0.18 | 0.16 | 88 | 1007.9 |
| 20260506185540 | 51 | 217 | 0.0 | 6.0 | 0.00 | 0.18 | 0.16 | 88 | 1007.7 |
| 20260506185040 | 51 | 217 | 2.0 | 6.0 | 0.00 | 0.18 | 0.16 | 88 | 1007.7 |
| 20260506184542 | 51 | 205 | 3.0 | 7.0 | 0.00 | 0.18 | 0.16 | 88 | 1007.6 |
| 20260506184039 | 51 | 235 | 2.0 | 6.0 | 0.00 | 0.18 | 0.16 | 88 | 1007.6 |
| 20260506183541 | 51 | 227 | 0.0 | 5.0 | 0.00 | 0.18 | 0.16 | 88 | 1007.5 |
| 20260506183039 | 51 | 248 | 3.0 | 6.0 | 0.00 | 0.18 | 0.16 | 88 | 1007.5 |
| 20260506182537 | 51 | 200 | 2.0 | 6.0 | 0.00 | 0.18 | 0.16 | 88 | 1007.5 |
| 20260506182036 | 52 | 240 | 1.0 | 6.0 | 0.00 | 0.18 | 0.16 | 88 | 1007.4 |
| 20260506181538 | 52 | 257 | 3.0 | 6.0 | 0.00 | 0.18 | 0.16 | 88 | 1007.3 |
| 20260506181034 | 52 | 230 | 0.0 | 6.0 | 0.00 | 0.18 | 0.16 | 88 | 1007.1 |
| 20260506180534 | 52 | 229 | 0.0 | 8.0 | 0.00 | 0.18 | 0.16 | 88 | 1007.1 |
| 20260506180038 | 53 | 255 | 3.0 | 8.0 | 0.00 | 0.18 | 0.16 | 87 | 1007.1 |
| 20260506175531 | 53 | 202 | 3.0 | 8.0 | 0.00 | 0.18 | 0.16 | 87 | 1007.0 |
| 20260506175031 | 54 | 241 | 1.0 | 7.0 | 0.00 | 0.18 | 0.16 | 87 | 1006.8 |
| 20260506174534 | 54 | 256 | 2.0 | 6.0 | 0.00 | 0.18 | 0.16 | 88 | 1006.7 |
| 20260506174031 | 55 | 237 | 3.0 | 6.0 | 0.00 | 0.18 | 0.16 | 88 | 1006.5 |
| 20260506173531 | 55 | 246 | 2.0 | 7.0 | 0.00 | 0.18 | 0.16 | 88 | 1006.5 |
| 20260506173031 | 56 | 205 | 2.0 | 9.0 | 0.00 | 0.18 | 0.16 | 88 | 1006.4 |
| 20260506172529 | 56 | 261 | 3.0 | 9.0 | 0.00 | 0.18 | 0.16 | 88 | 1006.3 |
| 20260506172033 | 57 | 222 | 4.0 | 10.0 | 0.00 | 0.18 | 0.16 | 89 | 1006.3 |
| 20260506171539 | 58 | 222 | 5.0 | 10.0 | 0.00 | 0.18 | 0.16 | 89 | 1006.1 |
| 20260506171030 | 58 | 252 | 3.0 | 10.0 | 0.00 | 0.18 | 0.16 | 89 | 1006.1 |
| 20260506170532 | 59 | 219 | 5.0 | 10.0 | 0.00 | 0.18 | 0.16 | 89 | 1006.0 |
| 20260506170028 | 59 | 234 | 2.0 | 8.0 | 0.00 | 0.18 | 0.16 | 90 | 1005.9 |
| 20260506165532 | 59 | 234 | 2.0 | 7.0 | 0.00 | 0.18 | 0.16 | 90 | 1005.9 |
| 20260506165028 | 59 | 268 | 1.0 | 8.0 | 0.00 | 0.18 | 0.16 | 90 | 1005.9 |
| 20260506164627 | 59 | 247 | 2.0 | 8.0 | 0.00 | 0.18 | 0.16 | 90 | 1006.0 |
| 20260506164027 | 59 | 275 | 4.0 | 8.0 | 0.00 | 0.18 | 0.16 | 91 | 1005.9 |
| 20260506163526 | 59 | 274 | 3.0 | 7.0 | 0.00 | 0.18 | 0.16 | 91 | 1005.9 |
| 20260506163034 | 59 | 282 | 0.0 | 7.0 | 0.00 | 0.18 | 0.16 | 91 | 1005.8 |
| 20260506162530 | 59 | 245 | 3.0 | 7.0 | 0.00 | 0.18 | 0.16 | 90 | 1005.9 |
| 20260506162025 | 59 | 267 | 1.0 | 5.0 | 0.00 | 0.18 | 0.16 | 91 | 1005.9 |
| 20260506161525 | 59 | 263 | 1.0 | 4.0 | 0.00 | 0.18 | 0.16 | 91 | 1005.9 |
| 20260506161024 | 59 | 270 | 0.0 | 5.0 | 0.01 | 0.18 | 0.16 | 91 | 1005.7 |
| 20260506160523 | 59 | 235 | 2.0 | 5.0 | 0.01 | 0.18 | 0.16 | 91 | 1005.8 |
| 20260506160022 | 59 | 160 | 2.0 | 6.0 | 0.01 | 0.18 | 0.16 | 91 | 1006.0 |
| 20260506155524 | 59 | 223 | 0.0 | 7.0 | 0.01 | 0.18 | 0.16 | 91 | 1006.0 |
| 20260506155022 | 59 | 275 | 1.0 | 7.0 | 0.02 | 0.18 | 0.16 | 91 | 1005.9 |
| 20260506154524 | 59 | 257 | 0.0 | 4.0 | 0.02 | 0.18 | 0.16 | 91 | 1005.9 |
| 20260506154024 | 58 | 275 | 2.0 | 5.0 | 0.02 | 0.18 | 0.16 | 91 | 1005.9 |
| 20260506153520 | 58 | 185 | 0.0 | 9.0 | 0.02 | 0.18 | 0.16 | 90 | 1006.0 |
| 20260506153021 | 58 | 281 | 1.0 | 9.0 | 0.02 | 0.18 | 0.16 | 90 | 1005.9 |
| 20260506152520 | 58 | 337 | 1.0 | 5.0 | 0.03 | 0.18 | 0.16 | 90 | 1005.8 |
| 20260506152019 | 58 | 319 | 0.0 | 2.0 | 0.03 | 0.18 | 0.16 | 91 | 1005.9 |
| 20260506151523 | 58 | 318 | 0.0 | 3.0 | 0.03 | 0.18 | 0.16 | 90 | 1006.0 |
| 20260506151018 | 58 | 321 | 1.0 | 3.0 | 0.02 | 0.17 | 0.15 | 90 | 1006.2 |
| 20260506150518 | 58 | 192 | 0.0 | 4.0 | 0.02 | 0.17 | 0.15 | 91 | 1006.1 |
| 20260506150020 | 58 | 338 | 1.0 | 4.0 | 0.02 | 0.17 | 0.15 | 91 | 1006.0 |
| 20260506145518 | 58 | 29 | 0.0 | 0.0 | 0.02 | 0.17 | 0.15 | 90 | 1006.0 |
| 20260506145017 | 58 | 29 | 0.0 | 0.0 | 0.01 | 0.16 | 0.14 | 90 | 1005.9 |
| 20260506144517 | 57 | 29 | 0.0 | 0.0 | 0.01 | 0.16 | 0.14 | 90 | 1006.0 |
| 20260506144015 | 57 | 29 | 0.0 | 0.0 | 0.02 | 0.16 | 0.14 | 91 | 1005.8 |
| 20260506143514 | 57 | 29 | 0.0 | 0.0 | 0.02 | 0.16 | 0.14 | 90 | 1005.8 |
| 20260506143017 | 57 | 29 | 0.0 | 0.0 | 0.02 | 0.16 | 0.14 | 90 | 1005.8 |
| 20260506142513 | 56 | 30 | 0.0 | 0.0 | 0.02 | 0.15 | 0.13 | 90 | 1006.0 |
| 20260506142015 | 56 | 29 | 0.0 | 0.0 | 0.02 | 0.15 | 0.13 | 90 | 1006.0 |
| 20260506141513 | 56 | 29 | 0.0 | 0.0 | 0.02 | 0.15 | 0.13 | 90 | 1006.0 |
| 20260506141013 | 56 | 29 | 0.0 | 0.0 | 0.03 | 0.15 | 0.13 | 90 | 1006.0 |
| 20260506140513 | 55 | 30 | 0.0 | 0.0 | 0.03 | 0.15 | 0.13 | 90 | 1006.0 |
| 20260506140017 | 55 | 29 | 0.0 | 0.0 | 0.04 | 0.15 | 0.13 | 90 | 1006.1 |
| 20260506135513 | 55 | 29 | 0.0 | 0.0 | 0.05 | 0.15 | 0.13 | 90 | 1006.1 |
| 20260506135010 | 55 | 29 | 0.0 | 0.0 | 0.06 | 0.15 | 0.13 | 89 | 1006.2 |
| 20260506134510 | 55 | 29 | 0.0 | 0.0 | 0.07 | 0.15 | 0.13 | 89 | 1006.2 |
| 20260506134011 | 54 | 29 | 0.0 | 0.0 | 0.07 | 0.14 | 0.12 | 89 | 1006.2 |
| 20260506133509 | 54 | 29 | 0.0 | 0.0 | 0.08 | 0.14 | 0.12 | 89 | 1006.3 |
| 20260506133010 | 54 | 29 | 0.0 | 0.0 | 0.09 | 0.14 | 0.12 | 89 | 1006.4 |
| 20260506132513 | 54 | 29 | 0.0 | 0.0 | 0.09 | 0.13 | 0.11 | 89 | 1006.5 |
| 20260506132006 | 54 | 30 | 0.0 | 0.0 | 0.10 | 0.13 | 0.11 | 89 | 1006.7 |
| 20260506131508 | 54 | 29 | 0.0 | 0.0 | 0.10 | 0.13 | 0.11 | 88 | 1006.7 |
| 20260506131006 | 54 | 29 | 0.0 | 0.0 | 0.09 | 0.12 | 0.10 | 88 | 1006.9 |
| 20260506130506 | 54 | 29 | 0.0 | 0.0 | 0.09 | 0.11 | 0.09 | 88 | 1006.9 |
| 20260506130007 | 54 | 29 | 0.0 | 0.0 | 0.09 | 0.11 | 0.09 | 88 | 1007.0 |
| 20260506125505 | 54 | 29 | 0.0 | 0.0 | 0.08 | 0.11 | 0.08 | 88 | 1007.0 |
| 20260506125005 | 54 | 29 | 0.0 | 0.0 | 0.07 | 0.10 | 0.07 | 88 | 1006.9 |
| 20260506124507 | 54 | 28 | 0.0 | 0.0 | 0.06 | 0.09 | 0.06 | 88 | 1007.0 |
| 20260506124004 | 54 | 28 | 0.0 | 0.0 | 0.05 | 0.08 | 0.05 | 88 | 1007.0 |
| 20260506123504 | 54 | 28 | 0.0 | 0.0 | 0.04 | 0.07 | 0.04 | 88 | 1006.8 |
| 20260506123006 | 54 | 28 | 0.0 | 0.0 | 0.03 | 0.06 | 0.03 | 88 | 1006.6 |
| 20260506122503 | 54 | 28 | 0.0 | 0.0 | 0.02 | 0.05 | 0.02 | 88 | 1006.7 |
| 20260506122004 | 54 | 28 | 0.0 | 0.0 | 0.01 | 0.04 | 0.01 | 88 | 1006.7 |
| 20260506121503 | 54 | 28 | 0.0 | 0.0 | 0.01 | 0.04 | 0.01 | 88 | 1006.7 |
| 20260506121002 | 54 | 28 | 0.0 | 0.0 | 0.01 | 0.04 | 0.01 | 88 | 1006.6 |
| 20260506120503 | 54 | 28 | 0.0 | 0.0 | 0.00 | 0.03 | 0.00 | 88 | 1006.5 |
| 20260506120003 | 54 | 29 | 0.0 | 0.0 | 0.00 | 0.03 | 0.00 | 88 | 1006.5 |
| 20260506115502 | 53 | 82 | 0.0 | 0.0 | 0.00 | 0.04 | 0.00 | 87 | 1006.5 |
| 20260506115002 | 53 | 82 | 0.0 | 0.0 | 0.00 | 0.04 | 0.00 | 87 | 1006.6 |
| 20260506114505 | 53 | 82 | 0.0 | 0.0 | 0.00 | 0.04 | 0.00 | 87 | 1006.7 |
| 20260506114003 | 53 | 82 | 0.0 | 0.0 | 0.00 | 0.04 | 0.00 | 87 | 1006.9 |
| 20260506113600 | 53 | 82 | 0.0 | 0.0 | 0.00 | 0.04 | 0.00 | 87 | 1007.2 |
| 20260506113100 | 53 | 82 | 0.0 | 0.0 | 0.00 | 0.04 | 0.00 | 87 | 1007.0 |
| 20260506112559 | 53 | 82 | 0.0 | 0.0 | 0.00 | 0.04 | 0.00 | 87 | 1007.1 |
| 20260506112058 | 53 | 82 | 0.0 | 0.0 | 0.00 | 0.04 | 0.00 | 87 | 1007.0 |
| 20260506111559 | 53 | 82 | 0.0 | 0.0 | 0.00 | 0.04 | 0.00 | 87 | 1007.1 |
| 20260506111100 | 53 | 82 | 0.0 | 0.0 | 0.00 | 0.04 | 0.00 | 87 | 1007.1 |
| 20260506110559 | 53 | 82 | 0.0 | 0.0 | 0.00 | 0.04 | 0.00 | 87 | 1007.0 |
| 20260506110059 | 53 | 82 | 0.0 | 0.0 | 0.00 | 0.04 | 0.00 | 87 | 1006.9 |
| 20260506105558 | 53 | 82 | 0.0 | 0.0 | 0.00 | 0.04 | 0.00 | 87 | 1006.9 |
| 20260506105100 | 53 | 82 | 0.0 | 0.0 | 0.00 | 0.04 | 0.00 | 87 | 1007.0 |
| 20260506104605 | 53 | 82 | 0.0 | 0.0 | 0.00 | 0.04 | 0.00 | 87 | 1006.9 |
| 20260506104058 | 53 | 82 | 0.0 | 1.0 | 0.00 | 0.04 | 0.00 | 87 | 1006.9 |
| 20260506103556 | 53 | 82 | 0.0 | 1.0 | 0.00 | 0.04 | 0.00 | 86 | 1007.0 |
| 20260506103059 | 53 | 82 | 0.0 | 0.0 | 0.00 | 0.04 | 0.00 | 86 | 1007.0 |
| 20260506102559 | 53 | 82 | 0.0 | 0.0 | 0.00 | 0.04 | 0.00 | 86 | 1006.9 |
| 20260506102056 | 53 | 82 | 0.0 | 0.0 | 0.00 | 0.04 | 0.00 | 86 | 1006.8 |
| 20260506101555 | 53 | 82 | 0.0 | 0.0 | 0.00 | 0.04 | 0.00 | 85 | 1006.6 |
| 20260506101055 | 53 | 82 | 0.0 | 0.0 | 0.00 | 0.04 | 0.00 | 85 | 1006.5 |
| 20260506100555 | 53 | 82 | 0.0 | 0.0 | 0.00 | 0.04 | 0.00 | 85 | 1006.6 |
| 20260506100109 | 53 | 82 | 0.0 | 0.0 | 0.00 | 0.04 | 0.00 | 85 | 1006.5 |
| 20260506095554 | 53 | 82 | 0.0 | 0.0 | 0.00 | 0.04 | 0.00 | 85 | 1006.4 |
| 20260506095056 | 53 | 82 | 0.0 | 0.0 | 0.00 | 0.04 | 0.00 | 85 | 1006.5 |
| 20260506094554 | 54 | 82 | 0.0 | 0.0 | 0.00 | 0.04 | 0.00 | 85 | 1006.6 |
| 20260506094053 | 54 | 82 | 0.0 | 0.0 | 0.00 | 0.04 | 0.00 | 85 | 1006.6 |
| 20260506093554 | 54 | 82 | 0.0 | 0.0 | 0.00 | 0.04 | 0.00 | 85 | 1006.6 |
| 20260506093056 | 54 | 82 | 0.0 | 0.0 | 0.00 | 0.04 | 0.00 | 85 | 1006.6 |
| 20260506092553 | 54 | 82 | 0.0 | 1.0 | 0.00 | 0.04 | 0.00 | 85 | 1006.6 |